Time,TemperatureF,DewpointF,PressureIn,WindDirection,WindDirectionDegrees,WindSpeedMPH,WindSpeedGustMPH,Humidity,HourlyPrecipIn,Conditions,Clouds,dailyrainin,SoftwareType,DateUTC
2013-01-20 00:02:00,40.0,39.0,30.29,SSW,205,0.0,0.0,95,0.00,,,0.00,,2013-01-20 08:02:00,
2013-01-20 00:11:00,40.0,39.0,30.29,SSW,205,0.0,0.0,95,0.00,,,0.00,,2013-01-20 08:11:00,
2013-01-20 00:22:00,40.0,39.0,30.29,SSW,205,0.0,0.0,95,0.00,,,0.00,,2013-01-20 08:22:00,
2013-01-20 00:32:00,40.0,39.0,30.29,SSW,205,0.0,0.0,96,0.00,,,0.00,,2013-01-20 08:32:00,
2013-01-20 00:42:00,40.0,39.0,30.29,SSW,205,0.0,0.0,96,0.00,,,0.00,,2013-01-20 08:42:00,
2013-01-20 00:52:00,40.0,39.0,30.29,SSW,205,0.0,0.0,96,0.00,,,0.00,,2013-01-20 08:52:00,
2013-01-20 01:02:00,39.0,38.0,30.28,SSW,205,0.0,1.0,95,0.00,,,0.00,,2013-01-20 09:02:00,
2013-01-20 01:12:00,39.0,38.0,30.28,SSW,205,0.0,1.0,95,0.00,,,0.00,,2013-01-20 09:12:00,
2013-01-20 01:22:00,39.0,38.0,30.29,WSW,253,0.0,2.0,95,0.00,,,0.00,,2013-01-20 09:22:00,
2013-01-20 01:33:00,38.0,37.0,30.29,WSW,253,0.0,0.0,95,0.00,,,0.00,,2013-01-20 09:33:00,
2013-01-20 01:42:00,38.0,37.0,30.29,WSW,253,0.0,0.0,95,0.00,,,0.00,,2013-01-20 09:42:00,
2013-01-20 01:52:00,38.0,37.0,30.29,WSW,253,0.0,0.0,95,0.00,,,0.00,,2013-01-20 09:52:00,
2013-01-20 02:11:00,37.0,36.0,30.28,WSW,253,0.0,1.0,95,0.00,,,0.00,,2013-01-20 10:11:00,
2013-01-20 02:22:00,37.0,36.0,30.28,WSW,253,0.0,1.0,95,0.00,,,0.00,,2013-01-20 10:22:00,
2013-01-20 02:32:00,36.0,35.0,30.29,WSW,253,0.0,0.0,95,0.00,,,0.00,,2013-01-20 10:32:00,
2013-01-20 02:42:00,36.0,35.0,30.29,WSW,253,0.0,0.0,95,0.00,,,0.00,,2013-01-20 10:42:00,
2013-01-20 02:52:00,36.0,35.0,30.29,WSW,253,0.0,0.0,95,0.00,,,0.00,,2013-01-20 10:52:00,
2013-01-20 03:02:00,36.0,35.0,30.29,WSW,253,0.0,1.0,95,0.00,,,0.00,,2013-01-20 11:02:00,
2013-01-20 03:11:00,36.0,35.0,30.29,WSW,253,0.0,1.0,95,0.00,,,0.00,,2013-01-20 11:11:00,
2013-01-20 03:22:00,35.0,34.0,30.29,WSW,253,0.0,2.0,95,0.00,,,0.00,,2013-01-20 11:22:00,
2013-01-20 03:32:00,34.0,33.0,30.28,WSW,253,0.0,1.0,95,0.00,,,0.00,,2013-01-20 11:32:00,
2013-01-20 03:42:00,34.0,33.0,30.28,WSW,253,0.0,1.0,95,0.00,,,0.00,,2013-01-20 11:42:00,
2013-01-20 03:53:00,34.0,33.0,30.28,WSW,253,0.0,1.0,95,0.00,,,0.00,,2013-01-20 11:53:00,
2013-01-20 04:02:00,34.0,33.0,30.28,WSW,253,0.0,1.0,95,0.00,,,0.00,,2013-01-20 12:02:00,
2013-01-20 04:12:00,34.0,33.0,30.28,WSW,253,0.0,1.0,95,0.00,,,0.00,,2013-01-20 12:12:00,
2013-01-20 04:22:00,33.0,32.0,30.28,WSW,254,0.0,0.0,95,0.00,,,0.00,,2013-01-20 12:22:00,
2013-01-20 04:33:00,32.0,30.0,30.28,WSW,254,0.0,0.0,94,0.00,,,0.00,,2013-01-20 12:33:00,
2013-01-20 04:43:00,32.0,30.0,30.28,WSW,254,0.0,0.0,94,0.00,,,0.00,,2013-01-20 12:43:00,
2013-01-20 04:52:00,32.0,30.0,30.28,WSW,254,0.0,0.0,94,0.00,,,0.00,,2013-01-20 12:52:00,
2013-01-20 05:02:00,32.0,30.0,30.28,WSW,254,0.0,0.0,94,0.00,,,0.00,,2013-01-20 13:02:00,
2013-01-20 05:11:00,32.0,30.0,30.28,WSW,254,0.0,0.0,94,0.00,,,0.00,,2013-01-20 13:11:00,
2013-01-20 05:53:00,31.0,30.0,30.27,WSW,254,0.0,0.0,95,0.00,,,0.00,,2013-01-20 13:53:00,
2013-01-20 06:02:00,31.0,30.0,30.27,WSW,254,0.0,0.0,96,0.00,,,0.00,,2013-01-20 14:02:00,
2013-01-20 06:12:00,31.0,30.0,30.27,WSW,254,0.0,0.0,96,0.00,,,0.00,,2013-01-20 14:12:00,
2013-01-20 06:22:00,31.0,30.0,30.27,WSW,254,0.0,0.0,96,0.00,,,0.00,,2013-01-20 14:22:00,
2013-01-20 06:32:00,31.0,30.0,30.27,WSW,254,0.0,0.0,96,0.00,,,0.00,,2013-01-20 14:32:00,
2013-01-20 06:42:00,31.0,30.0,30.27,WSW,254,0.0,0.0,96,0.00,,,0.00,,2013-01-20 14:42:00,
2013-01-20 07:03:00,30.0,29.0,30.27,WSW,254,0.0,0.0,95,0.00,,,0.00,,2013-01-20 15:03:00,
2013-01-20 07:12:00,30.0,29.0,30.27,WSW,254,0.0,0.0,95,0.00,,,0.00,,2013-01-20 15:12:00,
2013-01-20 07:22:00,30.0,29.0,30.27,WSW,254,0.0,1.0,96,0.00,,,0.00,,2013-01-20 15:22:00,
2013-01-20 07:32:00,30.0,29.0,30.27,WSW,254,0.0,0.0,95,0.00,,,0.00,,2013-01-20 15:32:00,
2013-01-20 07:42:00,30.0,29.0,30.27,WSW,254,0.0,0.0,95,0.00,,,0.00,,2013-01-20 15:42:00,
2013-01-20 07:52:00,30.0,29.0,30.27,WSW,254,0.0,0.0,95,0.00,,,0.00,,2013-01-20 15:52:00,
2013-01-20 08:02:00,29.0,28.0,30.27,WSW,254,0.0,0.0,95,0.00,,,0.00,,2013-01-20 16:02:00,
2013-01-20 08:12:00,29.0,28.0,30.27,WSW,254,0.0,0.0,95,0.00,,,0.00,,2013-01-20 16:12:00,
2013-01-20 08:22:00,29.0,28.0,30.27,WSW,254,0.0,0.0,95,0.00,,,0.00,,2013-01-20 16:22:00,
2013-01-20 08:33:00,29.0,28.0,30.27,WSW,254,0.0,0.0,96,0.00,,,0.00,,2013-01-20 16:33:00,
2013-01-20 08:42:00,29.0,28.0,30.27,WSW,254,0.0,0.0,96,0.00,,,0.00,,2013-01-20 16:42:00,
2013-01-20 08:52:00,29.0,28.0,30.27,WSW,254,0.0,0.0,96,0.00,,,0.00,,2013-01-20 16:52:00,
2013-01-20 09:02:00,30.0,29.0,30.27,WSW,254,0.0,0.0,96,0.00,,,0.00,,2013-01-20 17:02:00,
2013-01-20 09:12:00,30.0,29.0,30.27,WSW,254,0.0,0.0,96,0.00,,,0.00,,2013-01-20 17:12:00,
2013-01-20 09:22:00,30.0,29.0,30.27,WSW,254,0.0,0.0,96,0.00,,,0.00,,2013-01-20 17:22:00,
2013-01-20 09:32:00,31.0,30.0,30.27,WSW,254,0.0,0.0,96,0.00,,,0.00,,2013-01-20 17:32:00,
2013-01-20 09:42:00,31.0,30.0,30.27,WSW,254,0.0,0.0,96,0.00,,,0.00,,2013-01-20 17:42:00,
2013-01-20 09:53:00,31.0,30.0,30.27,WSW,254,0.0,0.0,96,0.00,,,0.00,,2013-01-20 17:53:00,
2013-01-20 10:02:00,36.0,35.0,30.28,NNW,342,1.0,3.0,96,0.00,,,0.00,,2013-01-20 18:02:00,
2013-01-20 10:12:00,36.0,35.0,30.28,NNW,342,1.0,3.0,96,0.00,,,0.00,,2013-01-20 18:12:00,
2013-01-20 10:23:00,36.0,35.0,30.28,NNW,342,1.0,3.0,96,0.00,,,0.00,,2013-01-20 18:23:00,
2013-01-20 10:33:00,36.0,35.0,30.28,NNW,342,1.0,3.0,96,0.00,,,0.00,,2013-01-20 18:33:00,
2013-01-20 10:42:00,36.0,35.0,30.28,NNW,342,1.0,3.0,96,0.00,,,0.00,,2013-01-20 18:42:00,
2013-01-20 11:02:00,44.0,39.0,30.28,NNW,327,0.0,2.0,81,0.01,,,0.01,,2013-01-20 19:02:00,
2013-01-20 11:12:00,44.0,39.0,30.28,NNW,327,0.0,2.0,81,0.01,,,0.01,,2013-01-20 19:12:00,
2013-01-20 11:22:00,44.0,39.0,30.28,NNW,327,0.0,2.0,81,0.01,,,0.01,,2013-01-20 19:22:00,
2013-01-20 11:33:00,46.0,39.0,30.27,WNW,290,0.0,2.0,77,0.00,,,0.01,,2013-01-20 19:33:00,
2013-01-20 11:42:00,46.0,39.0,30.27,WNW,290,0.0,2.0,77,0.00,,,0.01,,2013-01-20 19:42:00,
2013-01-20 11:53:00,46.0,39.0,30.27,WNW,290,0.0,2.0,77,0.00,,,0.01,,2013-01-20 19:53:00,
2013-01-20 12:02:00,48.0,41.0,30.26,WNW,290,0.0,1.0,76,0.00,,,0.01,,2013-01-20 20:02:00,
2013-01-20 12:12:00,48.0,41.0,30.26,WNW,290,0.0,1.0,76,0.00,,,0.01,,2013-01-20 20:12:00,
2013-01-20 12:22:00,48.0,41.0,30.26,WNW,290,0.0,1.0,76,0.00,,,0.01,,2013-01-20 20:22:00,
2013-01-20 12:33:00,48.0,41.0,30.26,WNW,290,0.0,1.0,76,0.00,,,0.01,,2013-01-20 20:33:00,
2013-01-20 12:53:00,53.0,45.0,30.24,WNW,290,0.0,1.0,74,0.00,,,0.01,,2013-01-20 20:53:00,
2013-01-20 13:03:00,53.0,45.0,30.24,WNW,290,0.0,0.0,74,0.00,,,0.01,,2013-01-20 21:03:00,
2013-01-20 13:12:00,53.0,45.0,30.24,WNW,290,0.0,0.0,74,0.00,,,0.01,,2013-01-20 21:12:00,
2013-01-20 13:22:00,53.0,45.0,30.24,WNW,290,0.0,0.0,74,0.00,,,0.01,,2013-01-20 21:22:00,
2013-01-20 13:33:00,55.0,47.0,30.23,WNW,290,0.0,0.0,75,0.00,,,0.01,,2013-01-20 21:33:00,
2013-01-20 13:43:00,55.0,47.0,30.23,WNW,290,0.0,0.0,75,0.00,,,0.01,,2013-01-20 21:43:00,
2013-01-20 13:53:00,55.0,47.0,30.22,WNW,290,0.0,1.0,75,0.00,,,0.01,,2013-01-20 21:53:00,
2013-01-20 14:02:00,55.0,47.0,30.21,WNW,290,0.0,1.0,73,0.00,,,0.01,,2013-01-20 22:02:00,
2013-01-20 14:12:00,55.0,47.0,30.21,WNW,290,0.0,1.0,73,0.00,,,0.01,,2013-01-20 22:12:00,
2013-01-20 14:22:00,55.0,47.0,30.21,WNW,290,0.0,1.0,73,0.00,,,0.01,,2013-01-20 22:22:00,
2013-01-20 14:32:00,56.0,48.0,30.21,WNW,290,0.0,0.0,74,0.00,,,0.01,,2013-01-20 22:32:00,
2013-01-20 14:42:00,56.0,48.0,30.21,WNW,290,0.0,0.0,74,0.00,,,0.01,,2013-01-20 22:42:00,
2013-01-20 14:53:00,55.0,47.0,30.21,WNW,290,0.0,1.0,74,0.00,,,0.01,,2013-01-20 22:53:00,
2013-01-20 15:02:00,55.0,48.0,30.21,NW,306,0.0,2.0,77,0.00,,,0.01,,2013-01-20 23:02:00,
2013-01-20 15:12:00,55.0,48.0,30.21,NW,306,0.0,2.0,77,0.00,,,0.01,,2013-01-20 23:12:00,
2013-01-20 15:22:00,55.0,48.0,30.21,NW,306,0.0,2.0,77,0.00,,,0.01,,2013-01-20 23:22:00,
2013-01-20 15:33:00,56.0,48.0,30.20,NW,306,0.0,0.0,74,0.00,,,0.01,,2013-01-20 23:33:00,
2013-01-20 15:43:00,56.0,48.0,30.20,NW,306,0.0,0.0,74,0.00,,,0.01,,2013-01-20 23:43:00,
2013-01-20 15:53:00,55.0,47.0,30.19,NW,306,0.0,0.0,75,0.00,,,0.01,,2013-01-20 23:53:00,
2013-01-20 16:02:00,55.0,47.0,30.19,NW,306,0.0,0.0,75,0.00,,,0.01,,2013-01-21 00:02:00,
2013-01-20 16:12:00,55.0,47.0,30.19,NW,306,0.0,0.0,75,0.00,,,0.01,,2013-01-21 00:12:00,
2013-01-20 16:22:00,55.0,47.0,30.19,NW,306,0.0,0.0,75,0.00,,,0.01,,2013-01-21 00:22:00,
2013-01-20 16:33:00,53.0,46.0,30.19,NW,306,0.0,1.0,76,0.00,,,0.01,,2013-01-21 00:33:00,
2013-01-20 16:43:00,53.0,46.0,30.19,NW,306,0.0,1.0,76,0.00,,,0.01,,2013-01-21 00:43:00,
2013-01-20 16:53:00,51.0,44.0,30.19,NW,306,0.0,0.0,78,0.00,,,0.01,,2013-01-21 00:53:00,
2013-01-20 17:02:00,51.0,44.0,30.19,NW,306,0.0,0.0,78,0.00,,,0.01,,2013-01-21 01:02:00,
2013-01-20 17:12:00,51.0,44.0,30.19,NW,306,0.0,0.0,78,0.00,,,0.01,,2013-01-21 01:12:00,
2013-01-20 17:22:00,51.0,44.0,30.19,NW,306,0.0,0.0,78,0.00,,,0.01,,2013-01-21 01:22:00,
2013-01-20 17:33:00,45.0,40.0,30.19,SSW,193,0.0,0.0,82,0.00,,,0.01,,2013-01-21 01:33:00,
2013-01-20 17:43:00,45.0,40.0,30.19,SSW,193,0.0,0.0,82,0.00,,,0.01,,2013-01-21 01:43:00,
2013-01-20 17:53:00,44.0,39.0,30.20,SSW,193,0.0,0.0,84,0.00,,,0.01,,2013-01-21 01:53:00,
2013-01-20 18:02:00,42.0,38.0,30.20,SSW,193,0.0,0.0,86,0.00,,,0.01,,2013-01-21 02:02:00,
2013-01-20 18:11:00,42.0,38.0,30.20,SSW,193,0.0,0.0,86,0.00,,,0.01,,2013-01-21 02:11:00,
2013-01-20 18:22:00,41.0,37.0,30.20,SSW,193,0.0,0.0,87,0.00,,,0.01,,2013-01-21 02:22:00,
2013-01-20 18:33:00,41.0,37.0,30.20,SSW,193,0.0,0.0,87,0.00,,,0.01,,2013-01-21 02:33:00,
2013-01-20 18:42:00,41.0,37.0,30.20,SSW,193,0.0,0.0,87,0.00,,,0.01,,2013-01-21 02:42:00,
2013-01-20 18:52:00,39.0,36.0,30.20,SSW,193,0.0,0.0,88,0.00,,,0.01,,2013-01-21 02:52:00,
2013-01-20 19:02:00,37.0,34.0,30.21,SSW,193,0.0,0.0,89,0.00,,,0.01,,2013-01-21 03:02:00,
2013-01-20 19:12:00,37.0,34.0,30.21,SSW,193,0.0,0.0,89,0.00,,,0.01,,2013-01-21 03:12:00,
2013-01-20 19:22:00,37.0,34.0,30.21,SSW,193,0.0,0.0,89,0.00,,,0.01,,2013-01-21 03:22:00,
2013-01-20 19:33:00,37.0,34.0,30.21,SSW,193,0.0,0.0,89,0.00,,,0.01,,2013-01-21 03:33:00,
2013-01-20 19:42:00,37.0,34.0,30.21,SSW,193,0.0,0.0,89,0.00,,,0.01,,2013-01-21 03:42:00,
2013-01-20 19:53:00,35.0,33.0,30.21,SSW,193,0.0,0.0,91,0.00,,,0.01,,2013-01-21 03:53:00,
2013-01-20 20:02:00,34.0,32.0,30.21,SSW,193,0.0,0.0,91,0.00,,,0.01,,2013-01-21 04:02:00,
2013-01-20 20:32:00,33.0,31.0,30.20,SSW,193,0.0,0.0,92,0.00,,,0.01,,2013-01-21 04:32:00,
2013-01-20 21:53:00,31.0,29.0,30.21,SSW,193,0.0,0.0,93,0.00,,,0.01,,2013-01-21 05:53:00,
2013-01-20 22:02:00,31.0,29.0,30.21,SSW,193,0.0,0.0,93,0.00,,,0.01,,2013-01-21 06:02:00,
2013-01-20 22:32:00,31.0,29.0,30.21,SSW,193,0.0,0.0,94,0.00,,,0.01,,2013-01-21 06:32:00,
2013-01-20 23:02:00,30.0,28.0,30.22,SSW,193,0.0,0.0,94,0.00,,,0.01,,2013-01-21 07:02:00,
2013-01-20 23:33:00,30.0,29.0,30.21,SSW,193,0.0,0.0,95,0.00,,,0.01,,2013-01-21 07:33:00,
2013-01-20 23:53:00,30.0,29.0,30.22,SSW,193,0.0,0.0,95,0.00,,,0.01,,2013-01-21 07:53:00,